Date String (YYYY-MM-DD hh:mm:ss) UTC,Instrument flags,Ambient pressure (hPa),Sample flow (lpm),Bypass flow (lpm),Sample temperature (°C),Ambient temperature (°C),ASC tube jacket temperature (°C),LED temperature (°C),Box temperature (°C),Sample RH (%),Span deviation,Mass concentration (μg/m³),Mass concentration (μg/m³),Mass concentration (μg/m³)
DateTimeUTC,F1_M11,P_M11,Q1_M11,Q2_M11,T1_M11,T2_M11,T3_M11,T4_M11,T5_M11,U1_M11,ZSPAN_M11,X0_M11,X2_M11,X1_M11
2022-08-01 05:00:00,,0829.8,4.99,0.00,29.3,27.3,00.0,38.1,31.1,26.2,0000.0,0008.70,0004.30,0003.91
2022-08-01 05:01:00,,0829.8,5.01,0.00,29.3,27.5,00.0,38.1,31.1,26.2,0000.0,0007.93,0004.28,0003.91
2022-08-01 05:02:00,,0829.8,4.99,0.00,29.3,27.6,00.0,38.1,31.2,26.2,0000.0,0007.68,0004.30,0003.93
2022-08-01 05:03:00,,0829.7,5.01,0.00,29.3,27.8,00.0,38.1,31.2,26.1,0000.0,0007.33,0004.29,0003.92
2022-08-01 05:04:00,,0829.8,4.99,0.00,29.3,27.9,00.0,38.1,31.3,26.2,0000.0,0007.31,0004.28,0003.93
2022-08-01 05:05:00,,0829.8,5.00,0.00,29.4,28.1,00.0,38.2,31.3,26.2,0000.0,0007.24,0004.27,0003.95
2022-08-01 05:06:00,,0829.8,5.00,0.00,29.4,28.2,00.0,38.2,31.4,26.2,0000.0,0006.47,0004.29,0003.97
2022-08-01 05:07:00,,0829.8,5.00,0.00,29.4,28.3,00.0,38.2,31.4,26.1,0000.0,0006.35,0004.29,0003.98
2022-08-01 05:08:00,,0829.8,4.99,0.00,29.5,28.4,00.0,38.2,31.4,26.2,0000.0,0006.51,0004.32,0004.00
2022-08-01 05:09:00,,0829.8,5.01,0.00,29.5,28.5,00.0,38.2,31.5,26.2,0000.0,0006.62,0004.34,0004.04
2022-08-01 05:10:00,,0829.8,5.01,0.00,29.5,28.5,00.0,38.2,31.5,26.1,0000.0,0006.55,0004.35,0004.06
2022-08-01 05:11:00,,0829.8,4.99,0.00,29.5,28.6,00.0,38.3,31.5,26.1,0000.0,0006.57,0004.38,0004.10
2022-08-01 05:12:00,,0829.8,5.01,0.00,29.6,28.7,00.0,38.3,31.6,26.2,0000.0,0006.61,0004.40,0004.13
2022-08-01 05:13:00,,0829.8,5.00,0.00,29.6,28.4,00.0,38.3,31.5,26.1,0000.0,0006.55,0004.40,0004.15
2022-08-01 05:14:00,,0829.8,5.00,0.00,29.6,27.6,00.0,38.3,31.3,26.1,0000.0,0006.43,0004.40,0004.16
2022-08-01 05:15:00,,0829.8,5.00,0.00,29.5,27.0,00.0,38.2,31.2,26.1,0000.0,0006.24,0004.38,0004.17
2022-08-01 05:16:00,,0829.8,4.99,0.00,29.4,26.9,00.0,38.2,31.0,26.3,0000.0,0006.28,0004.39,0004.18
2022-08-01 05:17:00,,0829.8,5.00,0.00,29.3,26.9,00.0,38.2,31.0,26.6,0000.0,0006.31,0004.41,0004.20
2022-08-01 05:18:00,,0829.8,5.00,0.00,29.3,27.1,00.0,38.1,31.0,26.5,0000.0,0006.20,0004.42,0004.21
2022-08-01 05:19:00,,0829.8,5.00,0.00,29.3,27.2,00.0,38.1,31.0,26.5,0000.0,0005.97,0004.40,0004.21
2022-08-01 05:20:00,,0829.8,5.00,0.00,29.3,27.4,00.0,38.1,31.1,26.3,0000.0,0005.83,0004.40,0004.20
2022-08-01 05:21:00,,0829.8,5.00,0.00,29.3,27.6,00.0,38.1,31.1,26.2,0000.0,0005.86,0004.40,0004.19
2022-08-01 05:22:00,,0829.8,5.00,0.00,29.3,27.7,00.0,38.1,31.2,26.3,0000.0,0005.77,0004.37,0004.17
2022-08-01 05:23:00,,0829.8,4.99,0.00,29.3,27.9,00.0,38.1,31.2,26.1,0000.0,0005.66,0004.35,0004.16
2022-08-01 05:24:00,,0829.8,5.00,0.00,29.3,28.0,00.0,38.1,31.3,26.1,0000.0,0005.71,0004.35,0004.16
2022-08-01 05:25:00,,0829.8,4.99,0.00,29.3,28.1,00.0,38.1,31.3,26.0,0000.0,0005.74,0004.35,0004.16
2022-08-01 05:26:00,,0829.8,5.00,0.00,29.4,28.2,00.0,38.2,31.4,25.9,0000.0,0005.83,0004.37,0004.16
2022-08-01 05:27:00,,0829.8,5.00,0.00,29.4,28.3,00.0,38.2,31.4,25.8,0000.0,0005.94,0004.38,0004.16
2022-08-01 05:28:00,,0829.8,5.00,0.00,29.4,28.4,00.0,38.2,31.4,25.7,0000.0,0005.85,0004.35,0004.15
2022-08-01 05:29:00,,0829.8,5.01,0.00,29.5,28.5,00.0,38.2,31.5,25.7,0000.0,0005.82,0004.34,0004.15
2022-08-01 05:30:00,,0829.8,4.99,0.00,29.5,28.6,00.0,38.2,31.5,25.6,0000.0,0005.91,0004.35,0004.16
2022-08-01 05:31:00,,0829.8,5.00,0.00,29.5,28.6,00.0,38.3,31.5,25.5,0000.0,0005.96,0004.34,0004.16
2022-08-01 05:32:00,,0829.9,5.00,0.00,29.6,28.7,00.0,38.3,31.6,25.5,0000.0,0005.90,0004.33,0004.16
2022-08-01 05:33:00,,0829.8,4.99,0.00,29.6,28.7,00.0,38.3,31.6,25.5,0000.0,0005.96,0004.36,0004.18
2022-08-01 05:34:00,,0829.8,5.00,0.00,29.6,28.3,00.0,38.3,31.5,25.4,0000.0,0006.08,0004.38,0004.19
2022-08-01 05:35:00,,0829.8,5.00,0.00,29.6,27.6,00.0,38.3,31.4,25.4,0000.0,0005.96,0004.36,0004.19
2022-08-01 05:36:00,,0829.8,5.01,0.00,29.5,27.4,00.0,38.3,31.3,25.5,0000.0,0006.07,0004.35,0004.20
2022-08-01 05:37:00,,0829.8,5.00,0.00,29.4,27.4,00.0,38.2,31.2,25.7,0000.0,0006.60,0004.38,0004.20
2022-08-01 05:38:00,,0829.8,5.01,0.00,29.4,27.5,00.0,38.2,31.2,25.7,0000.0,0006.58,0004.39,0004.22
2022-08-01 05:39:00,,0829.8,4.99,0.00,29.4,27.6,00.0,38.2,31.2,26.2,0000.0,0006.68,0004.41,0004.24
2022-08-01 05:40:00,,0829.8,5.00,0.00,29.4,27.8,00.0,38.2,31.3,26.7,0000.0,0007.10,0004.44,0004.25
2022-08-01 05:41:00,,0829.8,5.00,0.00,29.4,27.9,00.0,38.2,31.3,26.8,0000.0,0007.24,0004.48,0004.26
2022-08-01 05:42:00,,0829.8,5.01,0.00,29.4,28.0,00.0,38.2,31.3,26.8,0000.0,0007.25,0004.50,0004.26
2022-08-01 05:43:00,,0829.8,5.00,0.00,29.5,28.2,00.0,38.2,31.4,26.8,0000.0,0007.37,0004.53,0004.27
2022-08-01 05:44:00,,0829.8,5.00,0.00,29.5,28.3,00.0,38.3,31.4,26.8,0000.0,0007.47,0004.55,0004.27
2022-08-01 05:45:00,,0829.8,5.00,0.00,29.5,28.4,00.0,38.3,31.5,26.5,0000.0,0007.64,0004.59,0004.28
2022-08-01 05:46:00,,0829.8,4.99,0.00,29.5,28.5,00.0,38.3,31.5,26.3,0000.0,0007.93,0004.60,0004.28
2022-08-01 05:47:00,,0829.8,5.01,0.00,29.6,28.5,00.0,38.3,31.6,25.9,0000.0,0008.30,0004.63,0004.28
2022-08-01 05:48:00,,0829.8,5.01,0.00,29.6,28.6,00.0,38.3,31.6,25.4,0000.0,0008.01,0004.61,0004.29
2022-08-01 05:49:00,,0829.9,5.00,0.00,29.6,28.7,00.0,38.4,31.6,25.2,0000.0,0008.01,0004.63,0004.31
2022-08-01 05:50:00,,0829.8,4.98,0.00,29.7,28.6,00.0,38.4,31.7,25.1,0000.0,0007.93,0004.64,0004.32
2022-08-01 05:51:00,,0829.9,5.00,0.00,29.7,28.0,00.0,38.3,31.5,25.1,0000.0,0007.73,0004.63,0004.34
2022-08-01 05:52:00,,0829.9,5.01,0.00,29.6,27.5,00.0,38.3,31.4,25.2,0000.0,0007.74,0004.64,0004.37
2022-08-01 05:53:00,,0830.1,4.99,0.00,29.6,27.5,00.0,38.3,31.4,25.4,0000.0,0007.78,0004.67,0004.40
2022-08-01 05:54:00,,0829.9,5.01,0.00,29.5,27.5,00.0,38.3,31.3,25.9,0000.0,0007.78,0004.69,0004.42
2022-08-01 05:55:00,,0829.8,4.99,0.00,29.5,27.6,00.0,38.3,31.3,26.2,0000.0,0007.72,0004.68,0004.44
2022-08-01 05:56:00,,0829.9,5.01,0.00,29.5,27.8,00.0,38.3,31.3,26.2,0000.0,0007.64,0004.66,0004.45
2022-08-01 05:57:00,,0829.9,5.00,0.00,29.5,27.9,00.0,38.3,31.4,26.2,0000.0,0007.53,0004.67,0004.46
2022-08-01 05:58:00,,0829.8,5.00,0.00,29.5,28.0,00.0,38.3,31.4,26.4,0000.0,0007.01,0004.68,0004.47
2022-08-01 05:59:00,,0829.8,5.00,0.00,29.5,28.1,00.0,38.3,31.4,26.6,0000.0,0007.49,0004.68,0004.48
